Location: Newark
(25.0000°N, 73.5000°E)
Time: 00:09:19
(UTC+00:00)

STARLINK-2733 - Pass Details

Date: 16 June 2021
Orbit: 546 x 548 km, 53.1° (Epoch: 03 August)

Event Time Altitude Azimuth Distance (km) Brightness Sun altitude
Exits shadow 23:25:57 12° 211° (SSW) 1,663 5.5 -10.8°
Maximum altitude 23:29:40 70° 128° (SE) 577 3.8 -10.1°
Drops below altitude 10° 23:33:41 10° 44° (NE) 1,778 7.7 -9.3°
Sets 23:35:59 0° 42° (NE) 2,699 8.9 -8.8°
